Epoch,demod_status_bits,ebno,lock_status,signal_level,viterbi_ber
1665169156,,13.6,0xc0504d,-37.7,
1665169157,C;S;V;F,,0x00c000,-38.0,0.00e-0
1665169158,C;S;V;F,13.6,0x00c000,-37.7,0.00e-0
1665169159,C;S;V;F,13.9,0x00c000,-37.6,0.00e-0
1665169160,C;S;V;F,13.7,0x00c000,,0.00e-0
1665169161,C;S;V;F,13.8,0x00c000,-37.6,0.00e-0
1665169162,C;S;V;F,13.8,0x00c000,-37.6,0.00e-0
1665169163,C;S;V;F,13.7,0x00c000,-37.6,0.00e-0
1665169164,C;S;V;F,13.8,0x00c000,-37.6,0.00e-0
1665169165,C;S;V;F,14.0,0x00c000,-37.6,0.00e-0
1665169166,C;S;V;F,14.1,0x00c000,-37.2,0.00e-0
1665169167,C;S;V;F,14.1,0x00c000,-37.6,
1665169168,,14.0,0x00c000,-37.3,0.00e-0
1665169169,C;S;V;F,14.4,0x00c000,-37.3,0.00e-0
1665169170,C;S;V;F,,0x00c000,-37.2,0.00e-0
1665169171,C;S;V;F,14.3,0x00c000,,0.00e-0
1665169172,C;S;V;F,14.4,0x00c000,-37.2,0.00e-0
1665169173,C;S;V;F,14.3,0x00c000,-37.3,0.00e-0
1665169174,C;S;V;F,14.4,0x00c000,-37.2,0.00e-0
1665169175,C;S;V;F,14.4,0x00c000,-37.2,0.00e-0
1665169176,C;S;V;F,14.5,0x00c000,-37.1,0.00e-0
1665169177,C;S;V;F,14.4,0x00c000,-37.2,0.00e-0
1665169178,C;S;V;F,14.7,0x00c000,-37.1,0.00e-0
1665169179,,14.4,0x00c000,-37.1,
1665169180,C;S;V;F,14.6,0x00c000,-36.8,0.00e-0
1665169181,C;S;V;F,,0x00c000,-36.9,0.00e-0
1665169182,C;S;V;F,15.0,0x00c000,,0.00e-0
1665169183,C;S;V;F,14.4,0x00c000,-37.2,0.00e-0
1665169184,C;S;V;F,14.8,0x00c000,-37.0,0.00e-0
1665169185,C;S;V;F,14.9,0x00c000,-37.1,0.00e-0
1665169186,C;S;V;F,14.9,0x00c000,-36.7,0.00e-0
1665169187,C;S;V;F,14.8,0x00c000,-36.8,0.00e-0
1665169188,,15.1,0x00c000,-36.4,
1665169189,C;S;V;F,15.2,0x00c000,-36.4,0.00e-0
1665169190,C;S;V;F,15.2,0x00c000,-36.5,0.00e-0
1665169191,C;S;V;F,,0x00c000,-36.5,0.00e-0
1665169192,C;S;V;F,15.0,0x00c000,-36.7,0.00e-0
1665169193,C;S;V;F,15.2,0x00c000,,0.00e-0
1665169194,C;S;V;F,15.0,0x00c000,-36.5,0.00e-0
1665169195,C;S;V;F,15.4,0x00c000,-36.3,0.00e-0
1665169196,C;S;V;F,15.2,0x00c000,-36.4,0.00e-0
1665169197,C;S;V;F,15.3,0x00c000,-36.3,0.00e-0
1665169198,C;S;V;F,15.2,0x00c000,-36.3,0.00e-0
1665169199,C;S;V;F,15.5,0x00c000,-36.4,0.00e-0
1665169200,,15.6,0x00c000,-36.2,
1665169201,C;S;V;F,15.4,0x00c000,-36.2,0.00e-0
1665169202,C;S;V;F,15.5,0x00c000,-36.3,0.00e-0
1665169203,C;S;V;F,,0x00c000,-36.1,0.00e-0
1665169204,C;S;V;F,15.6,0x00c000,-36.2,0.00e-0
1665169205,C;S;V;F,15.5,0x00c000,,0.00e-0
1665169206,C;S;V;F,15.5,0x00c000,-35.9,0.00e-0
1665169207,C;S;V;F,15.9,0x00c000,-36.0,0.00e-0
1665169209,C;S;V;F,15.7,0x00c000,-35.9,
1665169210,,15.8,0x00c000,-35.7,0.00e-0
1665169211,C;S;V;F,15.6,0x00c000,-36.2,0.00e-0
1665169212,C;S;V;F,,0x00c000,-35.8,0.00e-0
1665169213,C;S;V;F,16.0,0x00c000,-35.7,0.00e-0
1665169214,C;S;V;F,16.0,0x00c000,,0.00e-0
1665169215,C;S;V;F,15.9,0x00c000,-35.8,0.00e-0
1665169218,,16.0,0x00c000,-35.7,
1665169219,C;S;V;F,,0x00c000,-35.6,0.00e-0
1665169220,C;S;V;F,16.3,0x00c000,,0.00e-0
1665169221,C;S;V;F,16.1,0x00c000,-35.6,0.00e-0
1665169222,C;S;V;F,16.1,0x00c000,-35.6,0.00e-0
1665169223,C;S;V;F,16.3,0x00c000,-35.5,0.00e-0
1665169224,C;S;V;F,16.4,0x00c000,-35.5,0.00e-0
1665169225,C;S;V;F,16.2,0x00c000,-35.6,0.00e-0
1665169226,C;S;V;F,16.3,0x00c000,-35.2,0.00e-0
1665169227,C;S;V;F,16.3,0x00c000,-35.4,0.00e-0
1665169228,C;S;V;F,16.4,0x00c000,-35.3,0.00e-0
1665169229,C;S;V;F,16.4,0x00c000,-35.4,0.00e-0
1665169230,,16.4,0x00c000,-35.5,
1665169231,C;S;V;F,16.1,0x00c000,-35.2,0.00e-0
1665169232,C;S;V;F,16.4,0x00c000,-35.3,0.00e-0
1665169233,C;S;V;F,16.3,0x00c000,-35.5,0.00e-0
1665169234,C;S;V;F,,0x00c000,-35.2,0.00e-0
1665169235,C;S;V;F,16.5,0x00c000,-35.4,0.00e-0
1665169236,C;S;V;F,16.6,0x00c000,,0.00e-0
1665169237,C;S;V;F,16.5,0x00c000,-35.2,0.00e-0
1665169238,C;S;V;F,16.5,0x00c000,-35.2,0.00e-0
1665169239,C;S;V;F,16.7,0x00c000,-35.1,0.00e-0
1665169240,C;S;V;F,16.5,0x00c000,-35.0,0.00e-0
1665169241,C;S;V;F,16.7,0x00c000,-35.3,0.00e-0
1665169242,C;S;V;F,16.6,0x00c000,-35.2,0.00e-0
1665169243,C;S;V;F,16.6,0x00c000,-35.1,
1665169244,,16.8,0x00c000,-34.9,0.00e-0
1665169245,C;S;V;F,16.7,0x00c000,-35.0,0.00e-0
1665169246,C;S;V;F,17.0,0x00c000,-34.8,0.00e-0
1665169247,C;S;V;F,17.0,0x00c000,-34.8,0.00e-0
1665169248,C;S;V;F,,0x00c000,-34.8,0.00e-0
1665169249,C;S;V;F,16.8,0x00c000,,0.00e-0
1665169250,C;S;V;F,17.0,0x00c000,-34.8,0.00e-0
1665169251,C;S;V;F,17.2,0x00c000,-34.8,0.00e-0
1665169252,C;S;V;F,17.0,0x00c000,-34.7,0.00e-0
1665169253,C;S;V;F,17.0,0x00c000,-34.7,0.00e-0
1665169254,C;S;V;F,17.0,0x00c000,-34.7,0.00e-0
1665169255,,17.0,0x00c000,-34.8,
1665169256,C;S;V;F,17.0,0x00c000,-34.8,0.00e-0
1665169257,C;S;V;F,17.0,0x00c000,-34.7,0.00e-0
1665169258,C;S;V;F,17.0,0x00c000,-34.7,0.00e-0
1665169259,C;S;V;F,,0x00c000,-34.7,0.00e-0
1665169260,C;S;V;F,17.1,0x00c000,-34.7,0.00e-0
1665169261,C;S;V;F,17.1,0x00c000,,0.00e-0
1665169262,C;S;V;F,17.1,0x00c000,-34.8,0.00e-0
1665169263,C;S;V;F,17.2,0x00c000,-34.8,0.00e-0
1665169264,C;S;V;F,17.0,0x00c000,-34.8,0.00e-0
1665169265,C;S;V;F,17.0,0x00c000,-34.8,0.00e-0
1665169266,C;S;V;F,16.9,0x00c000,-34.9,0.00e-0
1665169267,C;S;V;F,16.7,0x00c000,-35.0,0.00e-0
1665169268,C;S;V;F,16.9,0x00c000,-34.9,
1665169269,,16.7,0x00c000,-35.1,0.00e-0
1665169270,C;S;V;F,,,,0.00e-0
1665169272,C;S;V;F,16.6,0x00c000,-35.2,0.00e-0
1665169273,C;S;V;F,16.6,0x00c000,-35.4,0.00e-0
1665169274,C;S;V;F,16.6,0x00c000,-35.2,
1665169275,,16.6,0x00c000,-35.5,0.00e-0
1665169276,C;S;V;F,16.7,0x00c000,-35.4,0.00e-0
1665169277,C;S;V;F,16.4,0x00c000,-35.4,0.00e-0
1665169278,C;S;V;F,,0x00c000,-35.6,0.00e-0
1665169279,C;S;V;F,16.5,0x00c000,,0.00e-0
1665169280,C;S;V;F,16.3,0x00c000,-35.6,0.00e-0
1665169281,C;S;V;F,16.4,0x00c000,-35.5,0.00e-0
1665169282,C;S;V;F,16.3,0x00c000,-35.9,0.00e-0
1665169283,C;S;V;F,16.4,0x00c000,-35.7,0.00e-0
1665169284,C;S;V;F,16.2,0x00c000,-35.7,0.00e-0
1665169285,C;S;V;F,16.2,0x00c000,-35.9,0.00e-0
1665169286,C;S;V;F,16.1,0x00c000,-35.9,0.00e-0
1665169287,C;S;V;F,16.2,0x00c000,-36.0,
1665169288,,16.3,0x00c000,-35.9,0.00e-0
1665169289,C;S;V;F,16.1,0x00c000,-36.1,0.00e-0
1665169290,C;S;V;F,15.8,0x00c000,-36.2,0.00e-0
1665169291,C;S;V;F,,0x00c000,-36.2,0.00e-0
1665169292,C;S;V;F,16.2,0x00c000,-36.3,0.00e-0
1665169293,C;S;V;F,16.1,0x00c000,,0.00e-0
1665169294,C;S;V;F,16.0,0x00c000,-36.2,0.00e-0
1665169295,C;S;V;F,15.9,0x00c000,-36.2,0.00e-0
1665169296,C;S;V;F,16.2,0x00c000,-36.2,0.00e-0
1665169297,C;S;V;F,16.1,0x00c000,-36.2,0.00e-0
1665169298,C;S;V;F,16.0,0x00c000,-36.3,0.00e-0
1665169299,C;S;V;F,15.8,0x00c000,-36.4,0.00e-0
1665169300,C;S;V;F,15.8,0x00c000,-36.4,0.00e-0
1665169301,C;S;V;F,16.0,0x00c000,-36.3,0.00e-0
1665169302,,15.9,0x00c000,-36.3,
1665169303,C;S;V;F,16.0,0x00c000,-36.3,0.00e-0
1665169304,C;S;V;F,15.9,0x00c000,-36.3,0.00e-0
1665169305,C;S;V;F,,0x00c000,-36.4,0.00e-0
1665169306,C;S;V;F,15.9,0x00c000,,0.00e-0
1665169307,C;S;V;F,16.0,0x00c000,-36.3,0.00e-0
1665169308,C;S;V;F,15.9,0x00c000,-36.3,0.00e-0
1665169309,C;S;V;F,16.2,0x00c000,-36.0,0.00e-0
1665169310,C;S;V;F,16.0,0x00c000,-36.2,0.00e-0
1665169311,C;S;V;F,16.2,0x00c000,-36.2,0.00e-0
1665169312,C;S;V;F,16.2,0x00c000,-35.9,0.00e-0
1665169313,C;S;V;F,16.1,0x00c000,-36.0,0.00e-0
1665169314,C;S;V;F,16.2,0x00c000,-35.8,
1665169315,,16.2,0x00c000,-35.9,0.00e-0
1665169316,C;S;V;F,16.2,0x00c000,-35.8,0.00e-0
1665169317,C;S;V;F,,0x00c000,-35.8,0.00e-0
1665169318,C;S;V;F,16.4,0x00c000,-35.7,0.00e-0
1665169319,C;S;V;F,16.3,0x00c000,,0.00e-0
1665169320,C;S;V;F,16.3,0x00c000,-36.0,0.00e-0
1665169321,C;S;V;F,16.5,0x00c000,-35.8,0.00e-0
1665169322,C;S;V;F,16.3,0x00c000,-35.7,
1665169323,,16.4,0x00c000,-35.7,0.00e-0
1665169324,C;S;V;F,16.3,0x00c000,-35.8,0.00e-0
1665169325,C;S;V;F,,0x00c000,-35.8,0.00e-0
1665169326,C;S;V;F,16.6,0x00c000,,0.00e-0
1665169327,C;S;V;F,16.5,0x00c000,-35.6,0.00e-0
1665169328,C;S;V;F,16.6,0x00c000,-35.6,0.00e-0
1665169329,C;S;V;F,16.5,0x00c000,-35.6,0.00e-0
1665169330,C;S;V;F,16.8,0x00c000,-35.6,0.00e-0
1665169331,C;S;V;F,16.6,0x00c000,-35.6,0.00e-0
1665169332,C;S;V;F,16.8,0x00c000,-35.5,0.00e-0
1665169335,C;S;V;F,16.8,0x00c000,-35.3,0.00e-0
1665169336,C;S;V;F,16.8,0x00c000,-35.1,0.00e-0
1665169337,C;S;V;F,16.8,0x00c000,-35.3,0.00e-0
1665169338,C;S;V;F,16.8,0x00c000,-35.2,0.00e-0
1665169339,C;S;V;F,16.7,0x00c000,-35.4,0.00e-0
1665169340,C;S;V;F,16.8,0x00c000,-35.1,
1665169341,C;S;V;F,16.8,0x00c000,-35.2,0.00e-0
1665169342,,16.9,0x00c000,-35.3,0.00e-0
1665169343,C;S;V;F,16.8,0x00c000,-35.5,0.00e-0
1665169344,C;S;V;F,,0x00c000,-35.7,0.00e-0
1665169345,C;S;V;F,16.5,0x00c000,,0.00e-0
1665169346,C;S;V;F,16.8,0x00c000,-35.9,0.00e-0
1665169347,C;S;V;F,16.3,0x00c000,-36.0,0.00e-0
1665169348,C;S;V;F,16.4,0x00c000,-36.1,0.00e-0
1665169349,C;S;V;F,16.3,0x00c000,-36.1,0.00e-0
1665169350,C;S;V;F,16.1,0x00c000,-36.2,0.00e-0
1665169351,C;S;V;F,16.3,0x00c000,-36.1,0.00e-0
1665169352,C;S;V;F,16.1,0x00c000,-36.2,0.00e-0
1665169353,C;S;V;F,16.0,0x00c000,-36.2,0.00e-0
1665169354,C;S;V;F,16.1,0x00c000,-36.3,0.00e-0
1665169355,,16.3,0x00c000,-36.3,
1665169356,C;S;V;F,16.1,0x00c000,-36.3,0.00e-0
1665169357,C;S;V;F,,0x00c000,-36.3,0.00e-0
1665169358,C;S;V;F,16.1,0x00c000,,0.00e-0
1665169359,C;S;V;F,16.1,0x00c000,-36.3,0.00e-0
1665169360,C;S;V;F,16.1,0x00c000,-36.3,0.00e-0
1665169361,C;S;V;F,16.1,0x00c000,-36.4,0.00e-0
1665169362,C;S;V;F,16.1,0x00c000,-36.4,0.00e-0
1665169363,C;S;V;F,16.0,0x00c000,-36.4,0.00e-0
1665169364,C;S;V;F,16.0,0x00c000,-36.3,0.00e-0
1665169365,C;S;V;F,16.0,0x00c000,-36.4,0.00e-0
1665169366,,15.8,0x00c000,-36.3,
1665169367,C;S;V;F,15.9,0x00c000,-36.3,0.00e-0
1665169368,C;S;V;F,16.2,0x00c000,-36.4,0.00e-0
1665169369,C;S;V;F,,0x00c000,-36.4,0.00e-0
1665169370,C;S;V;F,15.9,0x00c000,,0.00e-0
1665169371,C;S;V;F,15.9,0x00c000,-36.7,0.00e-0
1665169372,C;S;V;F,15.6,0x00c000,-36.9,0.00e-0
1665169373,C;S;V;F,15.5,0x00c000,-36.8,0.00e-0
1665169374,C;S;V;F,15.4,0x00c000,-37.2,0.00e-0
1665169375,C;S;V;F,15.4,0x00c000,-37.2,0.00e-0
1665169376,C;S;V;F,15.4,0x00c000,-36.9,0.00e-0
1665169377,C;S;V;F,15.5,0x00c000,-37.1,0.00e-0
1665169378,C;S;V;F,15.2,0x00c000,-37.2,
1665169379,,15.4,0x00c000,-37.4,0.00e-0
1665169380,C;S;V;F,15.1,0x00c000,-37.5,0.00e-0
1665169381,C;S;V;F,15.0,0x00c000,-37.5,0.00e-0
1665169382,C;S;V;F,,0x00c000,-37.7,0.00e-0
1665169383,C;S;V;F,14.7,0x00c000,-37.7,0.00e-0
1665169384,C;S;V;F,14.7,0x00c000,-37.6,0.00e-0
1665169385,C;S;V;F,15.0,0x00c000,,0.00e-0
1665169386,C;S;V;F,15.1,0x00c000,-37.4,0.00e-0
1665169387,C;S;V;F,15.4,0x00c000,-37.2,0.00e-0
1665169388,C;S;V;F,15.6,0x00c000,-37.1,0.00e-0
1665169389,C;S;V;F,15.6,0x00c000,-36.6,0.00e-0
1665169390,C;S;V;F,15.7,0x00c000,-36.7,0.00e-0
1665169391,C;S;V;F,15.9,0x00c000,-36.5,0.00e-0
1665169392,C;S;V;F,15.7,0x00c000,-36.6,
1665169393,,15.6,0x00c000,-36.8,0.00e-0
1665169394,C;S;V;F,15.5,0x00c000,-37.0,0.00e-0
1665169395,C;S;V;F,,,,0.00e-0
1665169397,,15.6,0x00c000,-36.8,
1665169398,C;S;V;F,15.8,0x00c000,-36.9,0.00e-0
1665169399,C;S;V;F,,0x00c000,-37.0,0.00e-0
1665169400,C;S;V;F,15.8,0x00c000,-36.9,0.00e-0
1665169401,C;S;V;F,15.6,0x00c000,,0.00e-0
1665169402,C;S;V;F,15.4,0x00c000,-37.3,0.00e-0
1665169403,C;S;V;F,15.1,0x00c000,-37.6,0.00e-0
1665169404,C;S;V;F,14.6,0x00c000,-38.0,0.00e-0
1665169405,C;S;V;F,14.5,0x00c000,-38.2,0.00e-0
1665169406,C;S;V;F,14.3,0x00c000,-38.5,0.00e-0
1665169407,C;S;V;F,14.0,0x00c000,-38.7,
1665169408,,13.9,0x00c000,-38.6,0.00e-0
1665169409,C;S;V;F,14.3,0x00c000,-38.8,0.00e-0
1665169410,C;S;V;F,13.8,0x00c000,-38.8,0.00e-0
1665169411,C;S;V;F,,0x00c000,-38.8,0.00e-0
1665169412,C;S;V;F,13.6,0x00c000,-39.1,0.00e-0
1665169413,C;S;V;F,13.7,0x00c000,,0.00e-0
1665169414,C;S;V;F,13.7,0x00c000,-39.1,0.00e-0
1665169415,C;S;V;F,13.7,0x00c000,-39.1,0.00e-0
1665169416,C;S;V;F,13.9,0x00c000,-39.0,0.00e-0
1665169417,C;S;V;F,13.6,0x00c000,-39.2,0.00e-0
1665169418,,13.3,0x00c000,-39.2,
1665169419,C;S;V;F,13.6,0x00c000,-38.8,0.00e-0
1665169420,C;S;V;F,13.6,0x00c000,-39.1,0.00e-0
1665169421,C;S;V;F,13.4,0x00c000,-39.1,0.00e-0
1665169422,C;S;V;F,,0x00c000,-39.1,0.00e-0
1665169423,C;S;V;F,13.8,0x00c000,-38.7,0.00e-0
1665169424,C;S;V;F,13.8,0x00c000,,0.00e-0
1665169425,C;S;V;F,14.1,0x00c000,-38.3,0.00e-0
1665169426,C;S;V;F,14.4,0x00c000,-38.0,0.00e-0
1665169427,C;S;V;F,14.5,0x00c000,-37.7,0.00e-0
1665169428,C;S;V;F,14.9,0x00c000,-37.8,0.00e-0
1665169429,,14.9,0x00c000,-37.9,
1665169430,C;S;V;F,14.9,0x00c000,-37.8,0.00e-0
1665169431,C;S;V;F,15.0,0x00c000,-37.6,0.00e-0
1665169432,C;S;V;F,,0x00c000,-37.5,0.00e-0
1665169433,C;S;V;F,15.1,0x00c000,,0.00e-0
1665169434,C;S;V;F,15.2,0x00c000,-37.3,0.00e-0
1665169435,C;S;V;F,15.1,0x00c000,-37.4,0.00e-0
1665169436,C;S;V;F,15.4,0x00c000,-37.2,0.00e-0
1665169437,C;S;V;F,14.9,0x00c000,-37.8,0.00e-0
1665169438,C;S;V;F,14.9,0x00c000,-38.0,0.00e-0
1665169439,C;S;V;F,14.6,0x00c000,-37.9,0.00e-0
1665169440,C;S;V;F,15.0,0x00c000,-37.7,
1665169441,,15.2,0x00c000,-37.2,0.00e-0
1665169442,C;S;V;F,15.3,0x00c000,-37.2,0.00e-0
1665169443,C;S;V;F,15.3,0x00c000,-37.2,0.00e-0
1665169444,C;S;V;F,,0x00c000,-37.2,0.00e-0
1665169445,C;S;V;F,15.4,0x00c000,-37.2,0.00e-0
1665169446,C;S;V;F,15.3,0x00c000,,0.00e-0
1665169447,C;S;V;F,15.3,0x00c000,-37.2,0.00e-0
1665169448,C;S;V;F,15.5,0x00c000,-36.9,0.00e-0
1665169449,C;S;V;F,16.0,0x00c000,-36.6,0.00e-0
1665169450,C;S;V;F,16.0,0x00c000,-36.4,0.00e-0
1665169451,C;S;V;F,16.2,0x00c000,-36.3,0.00e-0
1665169452,C;S;V;F,16.2,0x00c000,-36.1,0.00e-0
1665169453,C;S;V;F,16.9,0x00c000,-35.1,0.00e-0
1665169454,C;S;V;F,17.6,0x00c000,-34.4,
1665169455,,17.6,0x00c000,-33.9,0.00e-0
1665169456,C;S;V;F,17.9,0x00c000,-33.5,0.00e-0
1665169457,C;S;V;F,18.3,0x00c000,-33.4,0.00e-0
1665169458,C;S;V;F,,0x00c000,,0.00e-0
1665169460,C;S;V;F,18.7,0x00c000,-32.7,0.00e-0
1665169461,C;S;V;F,19.1,0x00c000,-31.9,0.00e-0
1665169462,C;S;V;F,19.2,0x00c000,-31.5,0.00e-0
1665169463,C;S;V;F,19.2,0x00c000,-31.2,0.00e-0
1665169464,C;S;V;F,19.2,0x00c000,-31.2,
1665169465,,19.1,0x00c000,-31.5,0.00e-0
1665169466,C;S;V;F,19.1,0x00c000,-31.5,0.00e-0
1665169467,C;S;V;F,,0x00c000,-31.5,0.00e-0
1665169468,C;S;V;F,19.1,0x00c000,,0.00e-0
1665169469,C;S;V;F,19.3,0x00c000,-31.3,0.00e-0
1665169470,C;S;V;F,19.1,0x00c000,-31.6,0.00e-0
1665169471,C;S;V;F,19.1,0x00c000,-31.9,0.00e-0
1665169472,C;S;V;F,18.6,0x00c000,-32.2,0.00e-0
1665169473,C;S;V;F,18.4,0x00c000,-32.8,0.00e-0
1665169474,C;S;V;F,18.3,0x00c000,-33.3,0.00e-0
1665169475,C;S;V;F,17.9,0x00c000,-34.0,0.00e-0
1665169476,C;S;V;F,17.9,0x00c000,-34.4,
1665169477,,18.0,0x00c000,-34.2,0.00e-0
1665169478,C;S;V;F,17.9,0x00c000,-34.4,0.00e-0
1665169479,C;S;V;F,,0x00c000,-34.9,0.00e-0
1665169480,C;S;V;F,17.3,0x00c000,-35.5,0.00e-0
1665169481,C;S;V;F,16.9,0x00c000,,0.00e-0
1665169482,C;S;V;F,17.2,0x00c000,-35.2,0.00e-0
1665169483,C;S;V;F,16.9,0x00c000,-35.3,0.00e-0
1665169484,C;S;V;F,17.1,0x00c000,-35.4,0.00e-0
1665169485,C;S;V;F,17.4,0x00c000,-34.9,0.00e-0
1665169486,C;S;V;F,17.7,0x00c000,-34.6,0.00e-0
1665169487,C;S;V;F,17.5,0x00c000,-34.8,0.00e-0
1665169488,C;S;V;F,17.0,0x00c000,-35.3,0.00e-0
1665169489,C;S;V;F,17.4,0x00c000,-35.0,0.00e-0
1665169490,,17.7,0x00c000,-34.2,
1665169491,C;S;V;F,18.0,0x00c000,-34.0,0.00e-0
1665169492,C;S;V;F,18.0,0x00c000,-33.8,0.00e-0
1665169493,C;S;V;F,,0x00c000,-34.0,0.00e-0
1665169494,C;S;V;F,18.2,0x00c000,-34.2,0.00e-0
1665169495,C;S;V;F,18.1,0x00c000,,0.00e-0
1665169496,C;S;V;F,17.8,0x00c000,-33.8,0.00e-0
1665169497,C;S;V;F,18.2,0x00c000,-33.5,0.00e-0
1665169498,C;S;V;F,18.3,0x00c000,-33.6,0.00e-0
1665169499,C;S;V;F,18.0,0x00c000,-34.6,0.00e-0
1665169500,C;S;V;F,17.3,0x00c000,-34.7,0.00e-0
1665169501,C;S;V;F,17.7,0x00c000,-34.0,0.00e-0
1665169502,,18.0,0x00c000,-33.6,
1665169503,C;S;V;F,17.8,0x00c000,-33.9,0.00e-0
1665169504,C;S;V;F,17.5,0x00c000,-34.7,0.00e-0
1665169505,C;S;V;F,,0x00c000,-34.9,0.00e-0
1665169506,C;S;V;F,17.1,0x00c000,-34.8,0.00e-0
1665169507,C;S;V;F,17.5,0x00c000,,0.00e-0
1665169508,C;S;V;F,17.8,0x00c000,-33.9,0.00e-0
1665169509,C;S;V;F,17.7,0x00c000,-34.1,0.00e-0
1665169510,C;S;V;F,17.5,0x00c000,-34.7,0.00e-0
1665169511,C;S;V;F,17.0,0x00c000,-35.2,0.00e-0
1665169512,C;S;V;F,17.1,0x00c000,-35.2,0.00e-0
1665169513,C;S;V;F,17.1,0x00c000,-34.9,0.00e-0
1665169514,C;S;V;F,16.8,0x00c000,-35.3,0.00e-0
1665169515,C;S;V;F,16.9,0x00c000,-35.6,
1665169516,,16.5,0x00c000,-35.8,0.00e-0
1665169517,C;S;V;F,16.3,0x00c000,-36.1,0.00e-0
1665169518,C;S;V;F,,0x00c000,,0.00e-0
1665169539,,16.7,0x00c000,-35.7,
1665169540,C;S;V;F,,0x00c000,-34.2,0.00e-0
1665169541,C;S;V;F,17.7,0x00c000,-34.2,0.00e-0
1665169542,C;S;V;F,17.9,0x00c000,,0.00e-0
1665169543,C;S;V;F,17.1,0x00c000,-35.1,0.00e-0
1665169544,C;S;V;F,16.3,0x00c000,-35.8,0.00e-0
1665169545,C;S;V;F,16.7,0x00c000,-35.6,0.00e-0
1665169546,C;S;V;F,17.2,0x00c000,-34.8,0.00e-0
1665169547,C;S;V;F,17.3,0x00c000,-34.8,0.00e-0
1665169548,C;S;V;F,17.1,0x00c000,-35.2,0.00e-0
1665169549,C;S;V;F,17.4,0x00c000,-34.6,0.00e-0
1665169550,,18.0,0x00c000,-33.9,
1665169551,C;S;V;F,18.1,0x00c000,-33.8,0.00e-0
1665169552,C;S;V;F,,0x00c000,-33.8,0.00e-0
1665169553,C;S;V;F,17.9,0x00c000,,0.00e-0
1665169554,C;S;V;F,18.4,0x00c000,-32.7,0.00e-0
1665169555,C;S;V;F,18.9,0x00c000,-31.8,0.00e-0
1665169556,C;S;V;F,19.1,0x00c000,-31.6,0.00e-0
1665169557,C;S;V;F,18.8,0x00c000,-32.4,0.00e-0
1665169558,C;S;V;F,19.2,0x00c000,-32.0,0.00e-0
1665169559,C;S;V;F,19.6,0x00c000,-30.6,0.00e-0
1665169560,C;S;V;F,19.6,0x00c000,-30.3,0.00e-0
1665169561,,19.5,0x00c000,-30.8,
1665169562,C;S;V;F,19.4,0x00c000,-30.8,0.00e-0
1665169563,C;S;V;F,19.5,0x00c000,-30.9,0.00e-0
1665169564,C;S;V;F,19.5,0x00c000,-31.1,0.00e-0
1665169565,C;S;V;F,,0x00c000,-31.2,0.00e-0
1665169566,C;S;V;F,19.5,0x00c000,,0.00e-0
1665169567,C;S;V;F,19.1,0x00c000,-32.5,0.00e-0
1665169568,C;S;V;F,18.5,0x00c000,-33.5,0.00e-0
1665169569,C;S;V;F,18.5,0x00c000,-33.1,0.00e-0
1665169570,C;S;V;F,18.6,0x00c000,-33.0,0.00e-0
1665169571,C;S;V;F,18.2,0x00c000,-34.0,0.00e-0
1665169572,,17.7,0x00c000,-34.8,
1665169573,C;S;V;F,17.5,0x00c000,-34.1,0.00e-0
1665169574,C;S;V;F,17.4,0x00c000,-34.5,0.00e-0
1665169575,C;S;V;F,17.8,0x00c000,-34.2,0.00e-0
1665169576,C;S;V;F,,0x00c000,-33.3,0.00e-0
1665169577,C;S;V;F,18.1,0x00c000,-33.9,0.00e-0
1665169578,C;S;V;F,18.0,0x00c000,,0.00e-0
1665169579,C;S;V;F,18.3,0x00c000,-33.4,0.00e-0
1665169580,C;S;V;F,18.8,0x00c000,-32.2,0.00e-0
1665169581,C;S;V;F,19.0,0x00c000,-31.6,0.00e-0
1665169582,C;S;V;F,18.8,0x00c000,-32.0,0.00e-0
1665169583,C;S;V;F,18.9,0x00c000,-31.7,0.00e-0
1665169584,C;S;V;F,19.3,0x00c000,-30.9,0.00e-0
1665169586,,19.2,0x00c000,-31.2,
1665169587,C;S;V;F,19.4,0x00c000,-30.7,0.00e-0
1665169588,C;S;V;F,19.6,0x00c000,-30.9,0.00e-0
1665169589,C;S;V;F,,0x00c000,-31.7,0.00e-0
1665169590,C;S;V;F,19.4,0x00c000,-31.5,0.00e-0
1665169591,C;S;V;F,18.9,0x00c000,,0.00e-0
1665169592,C;S;V;F,19.0,0x00c000,-31.2,0.00e-0
1665169593,C;S;V;F,19.1,0x00c000,-31.7,0.00e-0
1665169594,C;S;V;F,18.9,0x00c000,-32.2,0.00e-0
1665169595,C;S;V;F,18.9,0x00c000,-32.3,0.00e-0
1665169596,C;S;V;F,19.1,0x00c000,-32.4,0.00e-0
1665169597,C;S;V;F,18.6,0x00c000,-32.9,0.00e-0
1665169598,C;S;V;F,18.2,0x00c000,-33.9,0.00e-0
1665169599,C;S;V;F,17.8,0x00c000,-34.3,
1665169600,,17.6,0x00c000,-34.4,0.00e-0
1665169601,C;S;V;F,17.5,0x00c000,-34.9,0.00e-0
1665169602,C;S;V;F,17.0,0x00c000,-35.5,0.00e-0
1665169603,C;S;V;F,,0x00c000,-35.6,0.00e-0
1665169604,C;S;V;F,16.7,0x00c000,,0.00e-0
1665169605,C;S;V;F,16.5,0x00c000,-35.9,0.00e-0
1665169606,C;S;V;F,15.8,0x00c000,-37.1,0.00e-0
1665169607,C;S;V;F,15.2,0x00c000,-37.9,0.00e-0
1665169608,C;S;V;F,14.5,0x00c000,-38.0,0.00e-0
1665169609,C;S;V;F,14.9,0x00c000,-37.5,0.00e-0
1665169610,C;S;V;F,14.3,0x00c000,-38.0,0.00e-0
1665169611,C;S;V;F,13.3,0x00c000,-39.2,0.00e-0
1665169612,C;S;V;F,13.3,0x00c000,-39.5,
1665169613,,13.9,0x00c000,-38.7,1.51e-7
1665169614,C;S;V;F,13.7,0x00c000,-39.0,0.00e-0
1665169615,C;S;V;F,,0x00c000,-39.2,0.00e-0
1665169616,C;S;V;F,13.3,0x00c000,,0.00e-0
1665169617,C;S;V;F,14.0,0x00c000,-38.4,0.00e-0
1665169618,C;S;V;F,14.7,0x00c000,-37.2,0.00e-0
1665169619,C;S;V;F,15.3,0x00c000,-36.5,0.00e-0
1665169620,C;S;V;F,16.0,0x00c000,-36.8,0.00e-0
1665169621,C;S;V;F,15.6,0x00c000,-37.0,0.00e-0
1665169622,C;S;V;F,15.6,0x00c000,-36.4,0.00e-0
1665169623,C;S;V;F,17.0,0x00c000,-35.5,0.00e-0
1665169624,C;S;V;F,17.2,0x00c000,-34.7,
1665169625,,17.3,0x00c000,-34.2,0.00e-0
1665169626,C;S;V;F,17.8,0x00c000,-34.0,0.00e-0
1665169627,C;S;V;F,18.2,0x00c000,-33.4,0.00e-0
1665169628,C;S;V;F,,0x00c000,-33.1,0.00e-0
1665169629,C;S;V;F,18.3,0x00c000,,0.00e-0
1665169630,C;S;V;F,18.4,0x00c000,-33.1,0.00e-0
1665169631,C;S;V;F,18.1,0x00c000,-33.5,0.00e-0
1665169632,C;S;V;F,17.4,0x00c000,-35.1,0.00e-0
1665169633,C;S;V;F,16.8,0x00c000,-35.8,0.00e-0
1665169634,C;S;V;F,16.7,0x00c000,-34.4,0.00e-0
1665169635,C;S;V;F,17.7,0x00c000,-33.1,0.00e-0
1665169636,C;S;V;F,18.9,0x00c000,-32.0,
1665169637,,18.9,0x00c000,-31.9,0.00e-0
1665169638,C;S;V;F,18.6,0x00c000,-32.3,0.00e-0
1665169639,C;S;V;F,18.4,0x00c000,-33.2,0.00e-0
1665169640,C;S;V;F,,0x00c000,-34.3,0.00e-0
1665169641,C;S;V;F,17.8,0x00c000,-35.0,0.00e-0
1665169642,C;S;V;F,17.1,0x00c000,,0.00e-0
1665169643,C;S;V;F,16.8,0x00c000,-35.5,0.00e-0
1665169644,C;S;V;F,16.9,0x00c000,-35.3,0.00e-0
1665169645,C;S;V;F,17.2,0x00c000,-34.5,0.00e-0
1665169646,C;S;V;F,17.7,0x00c000,-33.8,0.00e-0
1665169648,C;S;V;F,18.6,0x00c000,-32.4,0.00e-0
1665169649,C;S;V;F,18.3,0x00c000,-32.9,0.00e-0
1665169650,,17.5,0x00c000,-34.1,
1665169651,C;S;V;F,16.7,0x00c000,-35.5,0.00e-0
1665169652,C;S;V;F,16.4,0x00c000,-35.9,0.00e-0
1665169653,C;S;V;F,,0x00c000,-35.5,0.00e-0
1665169654,C;S;V;F,16.7,0x00c000,,0.00e-0
1665169655,C;S;V;F,17.2,0x00c000,-34.6,0.00e-0
1665169656,C;S;V;F,17.9,0x00c000,-33.2,0.00e-0
1665169657,C;S;V;F,18.4,0x00c000,-32.8,0.00e-0
1665169658,C;S;V;F,18.2,0x00c000,-33.2,0.00e-0
1665169659,C;S;V;F,18.2,0x00c000,-33.2,0.00e-0
1665169660,C;S;V;F,18.0,0x00c000,-33.7,0.00e-0
1665169661,C;S;V;F,17.6,0x00c000,-34.3,0.00e-0
1665169662,,17.2,0x00c000,-34.7,
1665169663,C;S;V;F,16.7,0x00c000,-35.3,0.00e-0
1665169664,C;S;V;F,,0x00c000,-35.3,0.00e-0
1665169665,C;S;V;F,16.9,0x00c000,-35.4,0.00e-0
1665169666,C;S;V;F,16.8,0x00c000,,0.00e-0
1665169667,C;S;V;F,16.9,0x00c000,-35.1,0.00e-0
1665169668,C;S;V;F,17.3,0x00c000,-34.6,0.00e-0
1665169669,C;S;V;F,17.5,0x00c000,-34.1,0.00e-0
1665169670,C;S;V;F,17.7,0x00c000,-34.0,0.00e-0
1665169671,C;S;V;F,17.6,0x00c000,-34.1,0.00e-0
1665169672,C;S;V;F,17.6,0x00c000,-34.0,0.00e-0
1665169673,C;S;V;F,17.0,0x00c000,-34.8,0.00e-0
1665169674,C;S;V;F,17.0,0x00c000,-35.1,
1665169675,,17.0,0x00c000,-35.3,0.00e-0
1665169676,C;S;V;F,16.5,0x00c000,-35.7,0.00e-0
1665169677,C;S;V;F,,0x00c000,-35.8,0.00e-0
1665169678,C;S;V;F,16.7,0x00c000,-35.9,0.00e-0
1665169679,C;S;V;F,16.4,0x00c000,,0.00e-0
1665169680,C;S;V;F,16.1,0x00c000,-36.3,0.00e-0
1665169681,C;S;V;F,16.1,0x00c000,-36.4,0.00e-0
1665169682,C;S;V;F,15.7,0x00c000,-36.5,0.00e-0
1665169683,C;S;V;F,15.4,0x00c000,-36.9,0.00e-0
1665169684,C;S;V;F,15.3,0x00c000,-36.9,0.00e-0
1665169685,C;S;V;F,15.4,0x00c000,-37.0,
1665169686,,15.3,0x00c000,-37.1,0.00e-0
1665169687,C;S;V;F,15.5,0x00c000,-36.7,0.00e-0
1665169688,C;S;V;F,,0x00c000,-36.7,0.00e-0
1665169689,C;S;V;F,15.7,0x00c000,-36.4,0.00e-0
1665169690,C;S;V;F,16.1,0x00c000,,0.00e-0
1665169691,C;S;V;F,16.1,0x00c000,-36.3,0.00e-0
1665169692,C;S;V;F,16.1,0x00c000,-36.2,0.00e-0
1665169693,C;S;V;F,16.3,0x00c000,-36.0,0.00e-0
1665169694,,16.2,0x00c000,-36.0,
1665169695,C;S;V;F,16.5,0x00c000,-35.9,0.00e-0
1665169696,C;S;V;F,16.4,0x00c000,-36.0,0.00e-0
1665169697,C;S;V;F,,0x00c000,-35.8,0.00e-0
1665169698,C;S;V;F,16.4,0x00c000,,0.00e-0
1665169699,C;S;V;F,16.5,0x00c000,-35.9,0.00e-0
1665169700,C;S;V;F,16.5,0x00c000,-35.9,0.00e-0
1665169701,C;S;V;F,16.4,0x00c000,-35.8,0.00e-0
1665169702,C;S;V;F,16.4,0x00c000,-36.0,0.00e-0
1665169703,C;S;V;F,16.3,0x00c000,-36.0,0.00e-0
1665169704,C;S;V;F,16.2,0x00c000,-36.2,
1665169705,,16.1,0x00c000,-36.1,0.00e-0
1665169706,C;S;V;F,16.2,0x00c000,-36.1,0.00e-0
1665169707,C;S;V;F,16.2,0x00c000,-36.0,0.00e-0
1665169708,C;S;V;F,,0x00c000,-35.9,0.00e-0
1665169709,C;S;V;F,16.3,0x00c000,,0.00e-0
1665169711,C;S;V;F,16.7,0x00c000,-35.2,0.00e-0
1665169712,C;S;V;F,17.0,0x00c000,-35.0,0.00e-0
1665169713,C;S;V;F,17.1,0x00c000,-34.8,0.00e-0
1665169714,C;S;V;F,17.2,0x00c000,-34.8,0.00e-0
1665169715,C;S;V;F,17.5,0x00c000,-34.5,0.00e-0
1665169716,C;S;V;F,17.3,0x00c000,-34.6,0.00e-0
1665169717,C;S;V;F,17.4,0x00c000,-34.5,0.00e-0
1665169718,C;S;V;F,17.2,0x00c000,-34.7,